Погода в Ланкаране

Погода в Ланкаране : погода сейчас, прогноз погоды и архив. Всё, что Вы хотите узнать о погоде в Ланкаране!

Поиск расширенной информации на нашем сайте:

Другие новости

Новости СМИ2

Главная страница сайта

Новости сайта

03.07.2017

Напоминаем, что на нашем специализированном сайте Метеоцентр.Азия вы можете получить высокодетализированные автоматические прогнозы погоды по пунктам России, СНГ и мира в авиационном формате (включающие направление и скорость ветра, видимость, явления погоды, количество и форму облачности, нижнюю и верхнюю границу облачности).

Рекомендуем: готовые проекты бань, проекты деревянных бань

Погода в Ланкаране - сегодня

Время (UTC), дата Ветер
(°,м/с) 
Видим.   Явления Облачность Т
(°С)
Тd
(°С)
f(%) Тe
(°С)
Pmin
(гПа)
dP
(гПа)
Po
(мм)
O2
(г/м3)
Тmin Tmax R s Состояние
почвы
12 18.10.17 110 (В) 20000 м    3/0 средняя 
[Ac lent]
+19.7 +15 74 +29  1025.4  0.6  770  286           
15 18.10.17 110 (В) 4000 м    9/9 600 м средняя 
[Sc|Ac lent]
+18.5 +14.3 77 +27  1025.2  -0.2  770  288           
18 18.10.17 230 (ЮЗ) 4000 м    4/0 средняя 
[Ac lent]
+15.4 +14 91 +23  1026  0.8  771  291    +20.7       
21 18.10.17 200 (Ю) 4000 м    6/0 средняя 
[Ac lent]
+14.4 +12.4 88 +20  1025.5  -0.5  770  292           
00 19.10.17 250 (З) 4000 м    ясно 
+12.4 +9.3 81 +14  1024.8  -0.7  770  295           
03 19.10.17 230 (ЮЗ) 10 км    6/0 средняя 
[Ac lent]
+10.7 +9.5 92 +12  1025.1  0.3  770  297           
06 19.10.17 020 (С) 20000 м    ясно 
+16.8 +11.7 72 +21  1025.6  0.5  770  290  +10.7         
09 19.10.17 050 (СВ) 10 км    9/9 600 м средняя 
[Sc|Ac lent]
+19.4 +12.8 66 +25  1023.8  -1.8  769  287           
12 19.10.17 140 (ЮВ) 10 км    8/8 600 м средняя 
[Sc|Ac lent]
+18.7 +13.4 71 +25  1021.9  -1.9  768  287           
15 19.10.17 тихо ()   4000 м    10/10 600 м 
[Sc]
+15.2 +13.9 92 +21  1021.5  -0.4  767  290           
18 19.10.17 340 (С) 4000 м    10/10 600 м 
[Sc]
+14.7 +13 90 +21  1021.3  0.2  767  291    +21.2       
21 19.10.17 250 (З) 4000 м    10/10 600 м 
[Sc]
+12.9 +11.5 91 +17  1020  -1.3  766  293           
00 20.10.17 250 (З) 4000 м    ясно 
+10.3 +9.7 96 +11  1019.2  -0.8  766  296           
03 20.10.17 200 (Ю) 10 км    ясно 
+9.9 +9.7 99 +11  1019.6  0.4  766  296           
06 20.10.17 360 (С) 20000 м    ясно 
+18.2 +13.4 74 +26  1020.2  0.6  766  287  +9.8         
09 20.10.17 050 (СВ) 20000 м    ясно 
+20.4 +12.8 62 +25  1018.8  -1.4  765  284           
12 20.10.17 тихо ()   10 км    ясно 
+20.1 +12.3 61 +24  1018.2  -0.6  765  285           
15 20.10.17 230 (ЮЗ) 4000 м    ясно 
+15.5 +13.1 86 +22  1018.9  0.7  765  289           
18 20.10.17 200 (Ю) 4000 м    ясно 
+14.1 +12.3 89 +19  1019.1  0.2  765  291    +20.9       
21 20.10.17 200 (Ю) 4000 м    ясно 
+11.9 +11 94 +15  1018.9  0.2  765  293           
00 21.10.17 340 (С) 4000 м    6/0 средняя 
[Ac lent]
+11.7 +11 95 +15  1018.8  0.1  765  294           
03 21.10.17 230 (ЮЗ) 10 км    ясно 
+10 +9.8 99 +12  1019  0.2  765  296           
06 21.10.17 тихо ()   10 км    ясно 
+17.1 +12.4 74 +21  1019.1  0.1  765  288  +9.8         
09 21.10.17 050 (СВ) 10 км    ясно 
+20 +14.1 69 +27  1017.7  -1.4  764  284           
12 21.10.17 110 (В) 10 км    8/8 600 м средняя 
[Sc|Ac lent]
+19.4 -16 8 +21  1016.3  1.4  763  288           
Время (UTC), дата Ветер
(°,м/с) 
Видим.   Явления Облачность Т
(°С)
Тd
(°С)
f(%) Тe
(°С)
Pmin
(гПа)
dP
(гПа)
Po
(мм)
O2
(г/м3)
Тmin Tmax R s Состояние
почвы

Для получения пояснительной информации подведите курсор к названию столбца.

ПОГОДА в Ланкаране - архив

Всё, что Вы хотите узнать о погоде в Ланкаране - удобно и подробно!

Выберите нужную дату (начиная с 1 января 2015* года) и нажмите кнопку "Найти".
Будут отображены архивные сводки погоды по пункту Ланкаран, начиная с указанной даты.


Отображать данные в формате CSV (для использования в таблицах Excel)


Внимание! Наш архив погоды предназначен исключительно для личного некоммерческого использования в познавательных целях. Если Вам необходимы официальные справки о состоянии погоды (для производственных, юридических, коммерческих и т.п. целей), обращайтесь в органы Росгидромета.

*Примечание: данная дата относится к архиву по метеостанциям СССР (Россия, СНГ, Балтия).
Архив по метеостанциям Зарубежной Европы и Азии (кроме Китая) хранится 10 дней, по другим регионам земного шара (Китай, Африка, Америка, Австралия, Океания) - 1 день.

Ланкаран - район местоположения метеостанции


Название, широта, долгота, высота метеостанции:
Ланкаран (аэропорт) 38.7°ш. 48.8°д. -12 м над ур. моря [Азербайджан]

Дополнительная информация

В oтличие oт бoльшинства пoгoдных сайтoв мы публикуем пoдрoбную метеoинфoрмацию в детальнoм прoфессиoнальнoм фoрмате.

Характеристики температуры и влажнoсти вoздуха измеряются на высoте 2 м в тени вдали oт зданий и деревьев.
Скoрoсть ветра измеряется на высoте 10 м (на урoвне рoста челoвека скoрoсть ветра ниже в 1.5-2 раза). Если метеoстанция нахoдится в гoрoде или в лесу, тo скoрoсть ветра занижена на 2-4 м/с пo сравнению с oткрытым местoм. Скoрoсть ветра над акватoриями крупных рек и oзёр, а также на вершинах хoлмoв на 2-5 м/с выше, чем в oбычных услoвиях.
Атмoсфернoе давление в разных тoчках местнoсти мoжет значительнo oтличаться oт давления на метеoстанции, в зависимoсти oт услoвий рельефа (при пoдъёме на 10 м давление пoнижается примернo на 1 мм рт.ст.).